GFSNIL_sfc_thetae_057.txt.gz
Theta_e
291 291 290 290 289 288 287 286 287 286 286 286 286 286 286 286 286 286 286 285 285 285
290 289 288 288 288 287 287 286 286 286 285 285 285 284 285 285 284 285 285 285 285 284
289 289 288 288 287 286 285 285 285 284 284 284 284 284 284 284 284 283 284 283 283 283
288 288 288 287 286 286 285 284 283 283 283 282 282 282 282 282 281 281 281 282 281 281
287 287 287 286 285 285 284 284 283 282 281 281 281 281 280 279 280 279 279 280 279 279
287 286 286 285 285 285 283 283 281 280 280 279 279 278 279 278 279 279 279 279 278 278
286 286 286 285 284 283 283 281 280 280 278 278 277 277 277 278 278 279 279 279 278 277
286 286 285 284 283 282 280 280 279 278 277 277 276 276 276 277 277 277 277 277 277 277
285 284 284 283 282 280 279 278 277 276 276 276 276 275 276 277 276 276 276 275 276 276
284 283 282 282 280 278 277 277 276 275 275 274 275 275 276 277 276 275 275 275 274 274
283 281 281 280 278 277 277 275 275 274 274 274 274 275 275 275 275 275 275 274 274 273
282 280 280 277 277 276 276 275 274 274 273 272 272 274 275 275 274 274 274 275 275 274
281 280 278 277 276 276 275 274 274 273 273 272 270 273 274 274 273 273 274 275 275 277
279 278 277 276 275 274 273 272 271 271 271 270 270 270 274 274 273 273 273 274 274 275

GFSNIL_sfc_thetae_060.txt.gz
Theta_e
287 286 286 285 284 283 282 282 282 282 282 282 282 282 283 281 281 281 280 280 280 280
286 285 285 284 283 282 282 283 282 281 281 281 281 281 281 280 279 279 279 279 279 279
285 284 284 283 282 281 281 281 281 280 280 280 280 279 279 278 279 278 278 279 278 278
284 284 283 282 281 281 280 280 280 280 280 279 279 278 278 277 277 277 276 277 276 277
284 283 282 281 281 280 280 280 279 279 279 278 278 277 277 276 276 275 276 276 276 276
282 282 281 281 280 280 279 278 278 278 277 277 277 276 276 275 276 275 275 276 276 275
281 281 281 280 280 279 279 278 277 277 276 276 276 275 276 276 275 275 276 276 276 275
281 281 281 280 280 279 278 277 277 276 275 275 275 275 275 276 275 275 275 275 276 275
282 281 281 280 279 278 277 276 276 275 275 274 275 277 277 277 276 276 275 274 275 275
282 282 281 280 278 277 276 276 275 274 274 273 274 278 278 278 276 275 274 274 274 274
282 280 280 279 277 275 275 274 273 273 273 273 273 278 278 278 275 274 274 274 274 273
281 280 279 278 276 275 274 273 272 272 271 270 271 277 278 277 273 273 273 274 274 274
281 280 278 277 275 274 272 272 273 273 270 270 267 275 277 276 273 269 272 273 275 277
279 279 278 275 271 271 269 271 268 269 268 268 269 269 275 277 274 271 270 271 272 274

GFSNIL_sfc_thetae_063.txt.gz
Theta_e
286 286 285 284 283 282 282 281 281 281 281 281 281 281 281 280 280 279 279 278 279 279
285 285 285 283 283 282 282 282 281 280 280 280 280 280 280 279 278 278 278 277 278 278
284 284 283 283 282 281 281 281 280 279 279 279 279 279 279 277 278 277 277 277 277 277
283 283 282 281 280 280 280 279 279 279 279 279 278 278 277 276 277 276 276 276 276 276
283 282 281 280 279 279 279 279 279 279 278 278 277 277 276 276 276 275 275 276 276 275
281 281 281 280 279 279 279 278 278 278 277 277 277 276 276 276 275 275 275 275 275 275
281 281 281 280 279 279 278 277 277 277 277 276 276 276 276 275 275 275 275 276 276 275
282 281 281 280 279 279 278 277 277 276 276 275 275 275 275 276 275 275 275 275 276 275
282 282 281 280 280 279 278 277 277 276 275 274 275 279 280 277 276 276 275 274 275 275
282 282 281 281 279 278 277 276 275 274 274 274 274 280 281 280 276 275 274 274 274 275
282 282 281 280 279 278 277 275 275 274 274 274 274 279 281 280 276 274 274 274 274 274
282 281 280 279 278 278 276 275 274 274 273 272 272 279 280 279 274 274 273 274 274 273
282 282 280 280 278 277 276 276 274 274 272 271 269 277 279 279 274 269 272 273 274 276
282 281 281 280 275 274 273 272 270 270 269 269 269 270 278 279 275 272 270 271 271 274

GFSNIL_sfc_thetae_069.txt.gz
Theta_e
289 289 287 286 284 283 282 281 281 281 281 281 281 281 281 280 279 279 278 278 278 279
288 287 286 284 283 282 282 282 281 281 280 280 280 280 280 279 278 278 278 277 278 277
287 286 285 283 281 281 281 281 280 280 280 279 279 279 279 278 278 277 277 277 277 277
285 284 283 282 281 280 280 280 280 280 279 279 279 279 278 278 277 277 276 276 276 276
284 283 281 281 280 280 280 280 280 280 280 279 279 278 278 277 277 276 276 276 275 275
283 281 281 280 280 280 279 279 279 279 279 279 278 278 278 278 276 275 275 275 275 275
282 282 281 281 280 280 279 279 279 279 279 278 278 278 277 277 275 275 275 276 275 275
283 283 281 280 280 279 279 279 279 278 278 278 277 277 277 276 276 275 275 275 276 275
282 281 281 280 280 279 279 279 278 278 277 277 277 281 282 278 275 275 275 274 274 275
282 281 280 280 279 279 278 278 278 277 277 277 276 283 284 282 276 275 275 274 275 275
282 281 280 280 279 279 278 278 277 277 277 277 277 283 284 283 276 275 275 275 274 274
282 281 280 279 279 279 278 278 277 278 277 277 276 282 284 283 277 276 275 275 274 274
283 282 280 280 279 279 279 279 278 278 278 277 277 281 283 283 277 274 275 275 275 277
282 282 282 281 280 280 279 278 277 277 276 277 276 275 282 284 277 276 274 274 274 274

GFSNIL_sfc_thetae_072.txt.gz
Theta_e
292 292 291 289 287 286 285 283 280 280 280 280 281 280 281 281 280 280 280 279 279 279
291 290 289 287 286 284 283 282 280 281 280 280 280 280 280 280 279 279 279 279 278 278
290 289 287 285 284 283 282 282 281 280 280 279 279 279 279 279 279 278 278 279 278 277
288 287 285 284 283 283 282 280 280 280 280 280 279 279 279 279 278 278 278 278 277 276
287 285 284 284 283 282 281 280 280 280 279 279 279 279 279 278 278 278 277 277 276 275
285 284 284 282 282 281 280 279 280 280 280 279 279 279 279 279 278 277 277 276 275 275
284 284 283 282 281 281 280 279 279 280 280 279 279 278 278 277 277 277 277 276 276 275
284 284 283 282 281 280 280 280 280 279 279 278 278 278 277 277 277 277 276 276 276 275
284 283 282 281 280 279 279 279 279 278 278 277 278 282 283 279 277 277 276 275 275 276
283 282 281 281 280 279 279 279 278 278 278 277 277 284 284 282 277 277 276 276 276 275
282 282 280 280 279 279 279 278 278 278 278 278 277 284 285 283 277 276 276 276 276 275
282 281 280 279 279 279 279 278 278 278 277 278 277 284 285 284 279 277 276 276 275 275
282 281 280 280 279 279 279 279 278 278 278 278 278 284 285 284 279 277 277 276 276 278
282 281 281 281 280 279 279 278 277 277 277 278 278 279 285 285 279 279 277 276 275 276

GFSNIL_sfc_thetae_075.txt.gz
Theta_e
296 296 297 294 293 291 291 288 285 284 285 284 284 284 285 285 284 284 284 283 283 283
294 294 293 291 290 289 288 285 284 283 283 284 284 284 284 283 283 283 283 282 282 281
293 293 291 288 287 286 284 284 283 283 282 283 283 282 283 282 282 282 282 281 281 280
291 291 289 288 286 285 284 283 282 282 281 282 281 282 282 281 281 281 280 281 280 279
289 288 287 286 285 284 283 283 282 281 281 281 281 281 281 280 280 280 280 279 279 278
288 287 287 286 284 283 283 282 281 281 281 281 281 281 281 281 280 280 280 279 278 278
287 287 287 285 284 283 282 281 281 281 280 280 280 280 280 279 279 279 279 279 279 278
287 286 285 284 283 282 281 281 281 280 280 280 280 280 279 279 279 279 278 278 278 278
285 285 284 283 282 281 280 280 280 280 279 279 279 283 283 280 279 278 278 277 277 277
284 283 283 282 281 280 280 280 279 279 279 279 279 285 284 282 279 279 278 277 277 277
283 282 282 281 281 280 280 279 279 279 279 279 279 285 285 282 279 279 278 277 277 277
282 281 281 281 280 280 279 279 279 279 279 279 279 285 286 283 279 279 278 277 277 277
282 281 280 281 280 280 280 279 279 279 279 279 279 286 286 285 281 280 279 278 277 278
281 280 280 280 281 280 279 279 278 278 278 278 279 283 287 287 282 281 280 279 278 278